Year,Month,Day,Hour,Minute,Value (Times are PST for temperature in C)
2014,08,11,00,00,16.80
2014,08,11,00,01,16.70
2014,08,11,00,02,16.70
2014,08,11,00,03,16.70
2014,08,11,00,04,16.70
2014,08,11,00,05,16.70
2014,08,11,00,06,16.70
2014,08,11,00,07,16.70
2014,08,11,00,08,16.60
2014,08,11,00,09,16.60
2014,08,11,00,10,16.60
2014,08,11,00,11,16.60
2014,08,11,00,12,16.60
2014,08,11,00,13,16.60
2014,08,11,00,14,16.60
2014,08,11,00,15,16.60
2014,08,11,00,16,16.60
2014,08,11,00,17,16.60
2014,08,11,00,18,16.60
2014,08,11,00,19,16.50
2014,08,11,00,20,16.40
2014,08,11,00,21,16.40
2014,08,11,00,22,16.40
2014,08,11,00,23,16.40
2014,08,11,00,24,16.40
2014,08,11,00,25,16.40
2014,08,11,00,26,16.40
2014,08,11,00,27,16.40
2014,08,11,00,28,16.30
2014,08,11,00,29,16.30
2014,08,11,00,30,16.30
2014,08,11,00,31,16.30
2014,08,11,00,32,16.30
2014,08,11,00,33,16.30
2014,08,11,00,34,16.20
2014,08,11,00,35,16.20
2014,08,11,00,36,16.20
2014,08,11,00,37,16.20
2014,08,11,00,38,16.20
2014,08,11,00,39,16.10
2014,08,11,00,40,16.10
2014,08,11,00,41,16.10
2014,08,11,00,42,16.10
2014,08,11,00,43,16.10
2014,08,11,00,44,16.10
2014,08,11,00,45,16.10
2014,08,11,00,46,16.10
2014,08,11,00,47,16.10
2014,08,11,00,48,16.10
2014,08,11,00,49,16.10
2014,08,11,00,50,16.10
2014,08,11,00,51,16.10
2014,08,11,00,52,16.10
2014,08,11,00,53,16.10
2014,08,11,00,54,16.10
2014,08,11,00,55,16.00
2014,08,11,00,56,15.90
2014,08,11,00,57,15.90
2014,08,11,00,58,15.90
2014,08,11,00,59,15.90
2014,08,11,01,00,15.80
2014,08,11,01,01,15.80
2014,08,11,01,02,15.80
2014,08,11,01,03,15.80
2014,08,11,01,04,15.80
2014,08,11,01,05,15.80
2014,08,11,01,06,15.80
2014,08,11,01,07,15.80
2014,08,11,01,08,15.80
2014,08,11,01,09,15.80
2014,08,11,01,10,15.80
2014,08,11,01,11,15.80
2014,08,11,01,12,15.80
2014,08,11,01,13,15.80
2014,08,11,01,14,15.80
2014,08,11,01,15,15.80
2014,08,11,01,16,15.80
2014,08,11,01,17,15.80
2014,08,11,01,18,15.80
2014,08,11,01,19,15.80
2014,08,11,01,20,15.80
2014,08,11,01,21,15.80
2014,08,11,01,22,15.80
2014,08,11,01,23,15.80
2014,08,11,01,24,15.80
2014,08,11,01,25,15.80
2014,08,11,01,26,15.80
2014,08,11,01,27,15.80
2014,08,11,01,28,15.80
2014,08,11,01,29,15.80
2014,08,11,01,30,15.70
2014,08,11,01,31,15.70
2014,08,11,01,32,15.70
2014,08,11,01,33,15.70
2014,08,11,01,34,15.60
2014,08,11,01,35,15.60
2014,08,11,01,36,15.60
2014,08,11,01,37,15.50
2014,08,11,01,38,15.50
2014,08,11,01,39,15.50
2014,08,11,01,40,15.40
2014,08,11,01,41,15.40
2014,08,11,01,42,15.30
2014,08,11,01,43,15.30
2014,08,11,01,44,15.30
2014,08,11,01,45,15.30
2014,08,11,01,46,15.30
2014,08,11,01,47,15.30
2014,08,11,01,48,15.30
2014,08,11,01,49,15.30
2014,08,11,01,50,15.30
2014,08,11,01,51,15.20
2014,08,11,01,52,15.20
2014,08,11,01,53,15.20
2014,08,11,01,54,15.20
2014,08,11,01,55,15.20
2014,08,11,01,56,15.20
2014,08,11,01,57,15.10
2014,08,11,01,58,15.10
2014,08,11,01,59,15.10
2014,08,11,02,00,15.10
2014,08,11,02,01,15.10
2014,08,11,02,02,15.00
2014,08,11,02,03,15.00
2014,08,11,02,04,15.00
2014,08,11,02,05,15.00
2014,08,11,02,06,15.00
2014,08,11,02,07,15.00
2014,08,11,02,08,15.00
2014,08,11,02,09,14.90
2014,08,11,02,10,14.90
2014,08,11,02,11,14.90
2014,08,11,02,12,14.90
2014,08,11,02,13,14.90
2014,08,11,02,14,14.90
2014,08,11,02,15,14.90
2014,08,11,02,16,14.90
2014,08,11,02,17,14.80
2014,08,11,02,18,14.80
2014,08,11,02,19,14.80
2014,08,11,02,20,14.80
2014,08,11,02,21,14.80
2014,08,11,02,22,14.80
2014,08,11,02,23,14.80
2014,08,11,02,24,14.80
2014,08,11,02,25,14.80
2014,08,11,02,26,14.80
2014,08,11,02,27,14.80
2014,08,11,02,28,14.80
2014,08,11,02,29,14.80
2014,08,11,02,30,14.80
2014,08,11,02,31,14.80
2014,08,11,02,32,14.80
2014,08,11,02,33,14.80
2014,08,11,02,34,14.80
2014,08,11,02,35,14.80
2014,08,11,02,36,14.70
2014,08,11,02,37,14.70
2014,08,11,02,38,14.70
2014,08,11,02,39,14.80
2014,08,11,02,40,14.80
2014,08,11,02,41,14.80
2014,08,11,02,42,14.80
2014,08,11,02,43,14.80
2014,08,11,02,44,14.80
2014,08,11,02,45,14.80
2014,08,11,02,46,14.90
2014,08,11,02,47,14.90
2014,08,11,02,48,14.90
2014,08,11,02,49,14.90
2014,08,11,02,50,14.90
2014,08,11,02,51,14.90
2014,08,11,02,52,14.90
2014,08,11,02,53,14.90
2014,08,11,02,54,14.90
2014,08,11,02,55,14.80
2014,08,11,02,56,14.80
2014,08,11,02,57,14.80
2014,08,11,02,58,14.80
2014,08,11,02,59,14.80
2014,08,11,03,00,14.80
2014,08,11,03,01,14.80
2014,08,11,03,02,14.80
2014,08,11,03,03,14.70
2014,08,11,03,04,14.70
2014,08,11,03,05,14.70
2014,08,11,03,06,14.70
2014,08,11,03,07,14.70
2014,08,11,03,08,14.60
2014,08,11,03,09,14.60
2014,08,11,03,10,14.60
2014,08,11,03,11,14.60
2014,08,11,03,12,14.60
2014,08,11,03,13,14.50
2014,08,11,03,14,14.50
2014,08,11,03,15,14.50
2014,08,11,03,16,14.50
2014,08,11,03,17,14.50
2014,08,11,03,18,14.40
2014,08,11,03,19,14.40
2014,08,11,03,20,14.40
2014,08,11,03,21,14.40
2014,08,11,03,22,14.40
2014,08,11,03,23,14.40
2014,08,11,03,24,14.40
2014,08,11,03,25,14.40
2014,08,11,03,26,14.30
2014,08,11,03,27,14.30
2014,08,11,03,28,14.30
2014,08,11,03,29,14.30
2014,08,11,03,30,14.30
2014,08,11,03,31,14.20
2014,08,11,03,32,14.20
2014,08,11,03,33,14.20
2014,08,11,03,34,14.20
2014,08,11,03,35,14.20
2014,08,11,03,36,14.20
2014,08,11,03,37,14.20
2014,08,11,03,38,14.20
2014,08,11,03,39,14.20
2014,08,11,03,40,14.20
2014,08,11,03,41,14.20
2014,08,11,03,42,14.20
2014,08,11,03,43,14.20
2014,08,11,03,44,14.20
2014,08,11,03,45,14.20
2014,08,11,03,46,14.10
2014,08,11,03,47,14.10
2014,08,11,03,48,14.10
2014,08,11,03,49,14.10
2014,08,11,03,50,14.00
2014,08,11,03,51,14.00
2014,08,11,03,52,14.00
2014,08,11,03,53,14.00
2014,08,11,03,54,14.00
2014,08,11,03,55,13.90
2014,08,11,03,56,13.90
2014,08,11,03,57,13.90
2014,08,11,03,58,13.90
2014,08,11,03,59,13.90
2014,08,11,04,00,13.80
2014,08,11,04,01,13.80
2014,08,11,04,02,13.80
2014,08,11,04,03,13.80
2014,08,11,04,04,13.80
2014,08,11,04,05,13.80
2014,08,11,04,06,13.80
2014,08,11,04,07,13.80
2014,08,11,04,08,13.80
2014,08,11,04,09,13.80
2014,08,11,04,10,13.80
2014,08,11,04,11,13.90
2014,08,11,04,12,13.90
2014,08,11,04,13,13.90
2014,08,11,04,14,13.90
2014,08,11,04,15,13.90
2014,08,11,04,16,13.90
2014,08,11,04,17,13.90
2014,08,11,04,18,13.90
2014,08,11,04,19,13.90
2014,08,11,04,20,13.90
2014,08,11,04,21,13.90
2014,08,11,04,22,13.80
2014,08,11,04,23,13.80
2014,08,11,04,24,13.80
2014,08,11,04,25,13.80
2014,08,11,04,26,13.80
2014,08,11,04,27,13.70
2014,08,11,04,28,13.70
2014,08,11,04,29,13.70
2014,08,11,04,30,13.70
2014,08,11,04,31,13.70
2014,08,11,04,32,13.70
2014,08,11,04,33,13.70
2014,08,11,04,34,13.70
2014,08,11,04,35,13.70
2014,08,11,04,36,13.60
2014,08,11,04,37,13.60
2014,08,11,04,38,13.60
2014,08,11,04,39,13.60
2014,08,11,04,40,13.60
2014,08,11,04,41,13.60
2014,08,11,04,42,13.60
2014,08,11,04,43,13.60
2014,08,11,04,44,13.60
2014,08,11,04,45,13.60
2014,08,11,04,46,13.60
2014,08,11,04,47,13.60
2014,08,11,04,48,13.60
2014,08,11,04,49,13.60
2014,08,11,04,50,13.60
2014,08,11,04,51,13.60
2014,08,11,04,52,13.70
2014,08,11,04,53,13.70
2014,08,11,04,54,13.70
2014,08,11,04,55,13.70
2014,08,11,04,56,13.70
2014,08,11,04,57,13.70
2014,08,11,04,58,13.70
2014,08,11,04,59,13.60
2014,08,11,05,00,13.60
2014,08,11,05,01,13.60
2014,08,11,05,02,13.60
2014,08,11,05,03,13.60
2014,08,11,05,04,13.50
2014,08,11,05,05,13.50
2014,08,11,05,06,13.50
2014,08,11,05,07,13.60
2014,08,11,05,08,13.60
2014,08,11,05,09,13.60
2014,08,11,05,10,13.60
2014,08,11,05,11,13.60
2014,08,11,05,12,13.50
2014,08,11,05,13,13.50
2014,08,11,05,14,13.50
2014,08,11,05,15,13.50
2014,08,11,05,16,13.50
2014,08,11,05,17,13.50
2014,08,11,05,18,13.40
2014,08,11,05,19,13.40
2014,08,11,05,20,13.40
2014,08,11,05,21,13.40
2014,08,11,05,22,13.40
2014,08,11,05,23,13.40
2014,08,11,05,24,13.40
2014,08,11,05,25,13.40
2014,08,11,05,26,13.40
2014,08,11,05,27,13.40
2014,08,11,05,28,13.40
2014,08,11,05,29,13.40
2014,08,11,05,30,13.40
2014,08,11,05,31,13.40
2014,08,11,05,32,13.40
2014,08,11,05,33,13.40
2014,08,11,05,34,13.40
2014,08,11,05,35,13.40
2014,08,11,05,36,13.30
2014,08,11,05,37,13.30
2014,08,11,05,38,13.30
2014,08,11,05,39,13.30
2014,08,11,05,40,13.30
2014,08,11,05,41,13.30
2014,08,11,05,42,13.30
2014,08,11,05,43,13.30
2014,08,11,05,44,13.30
2014,08,11,05,45,13.30
2014,08,11,05,46,13.30
2014,08,11,05,47,13.30
2014,08,11,05,48,13.30
2014,08,11,05,49,13.30
2014,08,11,05,50,13.30
2014,08,11,05,51,13.30
2014,08,11,05,52,13.30
2014,08,11,05,53,13.30
2014,08,11,05,54,13.30
2014,08,11,05,55,13.30
2014,08,11,05,56,13.30
2014,08,11,05,57,13.30
2014,08,11,05,58,13.30
2014,08,11,05,59,13.30
2014,08,11,06,00,13.30
2014,08,11,06,01,13.30
2014,08,11,06,02,13.20
2014,08,11,06,03,13.20
2014,08,11,06,04,13.20
2014,08,11,06,05,13.20
2014,08,11,06,06,13.20
2014,08,11,06,07,13.20
2014,08,11,06,08,13.20
2014,08,11,06,09,13.20
2014,08,11,06,10,13.20
2014,08,11,06,11,13.20
2014,08,11,06,12,13.20
2014,08,11,06,13,13.20
2014,08,11,06,14,13.30
2014,08,11,06,15,13.30
2014,08,11,06,16,13.30
2014,08,11,06,17,13.30
2014,08,11,06,18,13.30
2014,08,11,06,19,13.30
2014,08,11,06,20,13.30
2014,08,11,06,21,13.30
2014,08,11,06,22,13.30
2014,08,11,06,23,13.30
2014,08,11,06,24,13.30
2014,08,11,06,25,13.30
2014,08,11,06,26,13.30
2014,08,11,06,27,13.30
2014,08,11,06,28,13.20
2014,08,11,06,29,13.20
2014,08,11,06,30,13.30
2014,08,11,06,31,13.30
2014,08,11,06,32,13.30
2014,08,11,06,33,13.30
2014,08,11,06,34,13.30
2014,08,11,06,35,13.30
2014,08,11,06,36,13.30
2014,08,11,06,37,13.30
2014,08,11,06,38,13.30
2014,08,11,06,39,13.40
2014,08,11,06,40,13.40
2014,08,11,06,41,13.50
2014,08,11,06,42,13.60
2014,08,11,06,43,13.60
2014,08,11,06,44,13.70
2014,08,11,06,45,13.70
2014,08,11,06,46,13.70
2014,08,11,06,47,13.70
2014,08,11,06,48,13.70
2014,08,11,06,49,13.80
2014,08,11,06,50,13.80
2014,08,11,06,51,13.90
2014,08,11,06,52,14.00
2014,08,11,06,53,14.00
2014,08,11,06,54,14.10
2014,08,11,06,55,14.10
2014,08,11,06,56,14.20
2014,08,11,06,57,14.20
2014,08,11,06,58,14.20
2014,08,11,06,59,14.30
2014,08,11,07,00,14.30
2014,08,11,07,01,14.40
2014,08,11,07,02,14.40
2014,08,11,07,03,14.50
2014,08,11,07,04,14.60
2014,08,11,07,05,14.60
2014,08,11,07,06,14.80
2014,08,11,07,07,14.90
2014,08,11,07,08,15.00
2014,08,11,07,09,15.10
2014,08,11,07,10,15.10
2014,08,11,07,11,15.20
2014,08,11,07,12,15.30
2014,08,11,07,13,15.30
2014,08,11,07,14,15.40
2014,08,11,07,15,15.40
2014,08,11,07,16,15.50
2014,08,11,07,17,15.60
2014,08,11,07,18,15.60
2014,08,11,07,19,15.70
2014,08,11,07,20,15.70
2014,08,11,07,21,15.80
2014,08,11,07,22,15.80
2014,08,11,07,23,15.80
2014,08,11,07,24,15.90
2014,08,11,07,25,16.00
2014,08,11,07,26,16.10
2014,08,11,07,27,16.20
2014,08,11,07,28,16.20
2014,08,11,07,29,16.30
2014,08,11,07,30,16.40
2014,08,11,07,31,16.50
2014,08,11,07,32,16.60
2014,08,11,07,33,16.70
2014,08,11,07,34,16.80
2014,08,11,07,35,16.90
2014,08,11,07,36,17.00
2014,08,11,07,37,17.00
2014,08,11,07,38,17.10
2014,08,11,07,39,17.20
2014,08,11,07,40,17.30
2014,08,11,07,41,17.40
2014,08,11,07,42,17.50
2014,08,11,07,43,17.50
2014,08,11,07,44,17.60
2014,08,11,07,45,17.70
2014,08,11,07,46,17.70
2014,08,11,07,47,17.80
2014,08,11,07,48,17.90
2014,08,11,07,49,17.90
2014,08,11,07,50,18.00
2014,08,11,07,51,18.20
2014,08,11,07,52,18.20
2014,08,11,07,53,18.30
2014,08,11,07,54,18.40
2014,08,11,07,55,18.50
2014,08,11,07,56,18.60
2014,08,11,07,57,18.70
2014,08,11,07,58,18.70
2014,08,11,07,59,18.80
2014,08,11,08,00,18.90
2014,08,11,08,01,18.90
2014,08,11,08,02,19.00
2014,08,11,08,03,19.10
2014,08,11,08,04,19.10
2014,08,11,08,05,19.20
2014,08,11,08,06,19.30
2014,08,11,08,07,19.40
2014,08,11,08,08,19.50
2014,08,11,08,09,19.60
2014,08,11,08,10,19.60
2014,08,11,08,11,19.70
2014,08,11,08,12,19.70
2014,08,11,08,13,19.70
2014,08,11,08,14,19.80
2014,08,11,08,15,19.80
2014,08,11,08,16,19.90
2014,08,11,08,17,19.90
2014,08,11,08,18,19.90
2014,08,11,08,19,20.10
2014,08,11,08,20,20.10
2014,08,11,08,21,20.20
2014,08,11,08,22,20.30
2014,08,11,08,23,20.30
2014,08,11,08,24,20.40
2014,08,11,08,25,20.50
2014,08,11,08,26,20.60
2014,08,11,08,27,20.70
2014,08,11,08,28,20.70
2014,08,11,08,29,20.80
2014,08,11,08,30,20.80
2014,08,11,08,31,20.90
2014,08,11,08,32,20.90
2014,08,11,08,33,21.00
2014,08,11,08,34,21.00
2014,08,11,08,35,21.10
2014,08,11,08,36,21.20
2014,08,11,08,37,21.30
2014,08,11,08,38,21.30
2014,08,11,08,39,21.30
2014,08,11,08,40,21.40
2014,08,11,08,41,21.40
2014,08,11,08,42,21.60
2014,08,11,08,43,21.60
2014,08,11,08,44,21.60
2014,08,11,08,45,21.70
2014,08,11,08,46,21.70
2014,08,11,08,47,21.80
2014,08,11,08,48,21.80
2014,08,11,08,49,21.90
2014,08,11,08,50,21.90
2014,08,11,08,51,22.00
2014,08,11,08,52,22.00
2014,08,11,08,53,22.00
2014,08,11,08,54,22.00
2014,08,11,08,55,22.00
2014,08,11,08,56,22.00
2014,08,11,08,57,22.00
2014,08,11,08,58,22.10
2014,08,11,08,59,22.10
2014,08,11,09,00,22.20
2014,08,11,09,01,22.20
2014,08,11,09,02,22.30
2014,08,11,09,03,22.30
2014,08,11,09,04,22.40
2014,08,11,09,05,22.40
2014,08,11,09,06,22.50
2014,08,11,09,07,22.60
2014,08,11,09,08,22.70
2014,08,11,09,09,22.80
2014,08,11,09,10,23.00
2014,08,11,09,11,23.10
2014,08,11,09,12,23.20
2014,08,11,09,13,23.30
2014,08,11,09,14,23.40
2014,08,11,09,15,23.40
2014,08,11,09,16,23.30
2014,08,11,09,17,23.20
2014,08,11,09,18,23.10
2014,08,11,09,19,23.10
2014,08,11,09,20,23.10
2014,08,11,09,21,23.10
2014,08,11,09,22,23.10
2014,08,11,09,23,23.00
2014,08,11,09,24,23.00
2014,08,11,09,25,22.90
2014,08,11,09,26,22.90
2014,08,11,09,27,22.90
2014,08,11,09,28,22.90
2014,08,11,09,29,22.90
2014,08,11,09,30,22.90
2014,08,11,09,31,22.90
2014,08,11,09,32,22.90
2014,08,11,09,33,22.80
2014,08,11,09,34,22.70
2014,08,11,09,35,22.70
2014,08,11,09,36,22.70
2014,08,11,09,37,22.70
2014,08,11,09,38,22.60
2014,08,11,09,39,22.60
2014,08,11,09,40,22.50
2014,08,11,09,41,22.50
2014,08,11,09,42,22.50
2014,08,11,09,43,22.50
2014,08,11,09,44,22.60
2014,08,11,09,45,22.60
2014,08,11,09,46,22.70
2014,08,11,09,47,22.80
2014,08,11,09,48,22.90
2014,08,11,09,49,23.00
2014,08,11,09,50,23.10
2014,08,11,09,51,23.20
2014,08,11,09,52,23.30
2014,08,11,09,53,23.30
2014,08,11,09,54,23.40
2014,08,11,09,55,23.40
2014,08,11,09,56,23.60
2014,08,11,09,57,23.70
2014,08,11,09,58,23.80
2014,08,11,09,59,24.00
2014,08,11,10,00,24.20
2014,08,11,10,01,24.40
2014,08,11,10,02,24.60
2014,08,11,10,03,24.80
2014,08,11,10,04,24.90
2014,08,11,10,05,25.00
2014,08,11,10,06,25.10
2014,08,11,10,07,25.20
2014,08,11,10,08,25.30
2014,08,11,10,09,25.40
2014,08,11,10,10,25.40
2014,08,11,10,11,25.50
2014,08,11,10,12,25.60
2014,08,11,10,13,25.60
2014,08,11,10,14,25.80
2014,08,11,10,15,25.80
2014,08,11,10,16,25.90
2014,08,11,10,17,26.00
2014,08,11,10,18,26.00
2014,08,11,10,19,26.00
2014,08,11,10,20,26.00
2014,08,11,10,21,26.00
2014,08,11,10,22,26.10
2014,08,11,10,23,26.20
2014,08,11,10,24,26.20
2014,08,11,10,25,26.10
2014,08,11,10,26,26.20
2014,08,11,10,27,26.20
2014,08,11,10,28,26.30
2014,08,11,10,29,26.30
2014,08,11,10,30,26.30
2014,08,11,10,31,26.40
2014,08,11,10,32,26.50
2014,08,11,10,33,26.60
2014,08,11,10,34,26.60
2014,08,11,10,35,26.60
2014,08,11,10,36,26.60
2014,08,11,10,37,26.60
2014,08,11,10,38,26.60
2014,08,11,10,39,26.70
2014,08,11,10,40,26.70
2014,08,11,10,41,26.80
2014,08,11,10,42,26.80
2014,08,11,10,43,26.80
2014,08,11,10,44,26.80
2014,08,11,10,45,26.80
2014,08,11,10,46,26.80
2014,08,11,10,47,26.80
2014,08,11,10,48,26.80
2014,08,11,10,49,26.80
2014,08,11,10,50,26.80
2014,08,11,10,51,26.80
2014,08,11,10,52,26.80
2014,08,11,10,53,26.70
2014,08,11,10,54,26.70
2014,08,11,10,55,26.70
2014,08,11,10,56,26.70
2014,08,11,10,57,26.70
2014,08,11,10,58,26.70
2014,08,11,10,59,26.70
2014,08,11,11,00,26.70
2014,08,11,11,01,26.80
2014,08,11,11,02,26.80
2014,08,11,11,03,26.90
2014,08,11,11,04,27.00
2014,08,11,11,05,27.10
2014,08,11,11,06,27.10
2014,08,11,11,07,27.10
2014,08,11,11,08,27.20
2014,08,11,11,09,27.20
2014,08,11,11,10,27.20
2014,08,11,11,11,27.20
2014,08,11,11,12,27.20
2014,08,11,11,13,27.20
2014,08,11,11,14,27.10
2014,08,11,11,15,27.10
2014,08,11,11,16,27.10
2014,08,11,11,17,27.10
2014,08,11,11,18,27.20
2014,08,11,11,19,27.30
2014,08,11,11,20,27.30
2014,08,11,11,21,27.30
2014,08,11,11,22,27.40
2014,08,11,11,23,27.40
2014,08,11,11,24,27.30
2014,08,11,11,25,27.30
2014,08,11,11,26,27.30
2014,08,11,11,27,27.30
2014,08,11,11,28,27.30
2014,08,11,11,29,27.20
2014,08,11,11,30,27.30
2014,08,11,11,31,27.30
2014,08,11,11,32,27.30
2014,08,11,11,33,27.30
2014,08,11,11,34,27.30
2014,08,11,11,35,27.20
2014,08,11,11,36,27.10
2014,08,11,11,37,27.10
2014,08,11,11,38,27.10
2014,08,11,11,39,27.00
2014,08,11,11,40,26.90
2014,08,11,11,41,26.90
2014,08,11,11,42,26.90
2014,08,11,11,43,26.90
2014,08,11,11,44,27.00
2014,08,11,11,45,26.90
2014,08,11,11,46,27.00
2014,08,11,11,47,26.90
2014,08,11,11,48,27.00
2014,08,11,11,49,27.10
2014,08,11,11,50,27.10
2014,08,11,11,51,27.20
2014,08,11,11,52,27.20
2014,08,11,11,53,27.30
2014,08,11,11,54,27.30
2014,08,11,11,55,27.30
2014,08,11,11,56,27.30
2014,08,11,11,57,27.40
2014,08,11,11,58,27.40
2014,08,11,11,59,27.40
2014,08,11,12,00,27.40
2014,08,11,12,01,27.40
2014,08,11,12,02,27.40
2014,08,11,12,03,27.60
2014,08,11,12,04,27.60
2014,08,11,12,05,27.60
2014,08,11,12,06,27.60
2014,08,11,12,07,27.60
2014,08,11,12,08,27.60
2014,08,11,12,09,27.60
2014,08,11,12,10,27.70
2014,08,11,12,11,27.80
2014,08,11,12,12,27.80
2014,08,11,12,13,27.80
2014,08,11,12,14,27.80
2014,08,11,12,15,27.80
2014,08,11,12,16,27.80
2014,08,11,12,17,27.80
2014,08,11,12,18,27.80
2014,08,11,12,19,27.90
2014,08,11,12,20,27.90
2014,08,11,12,21,28.10
2014,08,11,12,22,28.10
2014,08,11,12,23,28.20
2014,08,11,12,24,28.30
2014,08,11,12,25,28.30
2014,08,11,12,26,28.30
2014,08,11,12,27,28.30
2014,08,11,12,28,28.30
2014,08,11,12,29,28.20
2014,08,11,12,30,28.30
2014,08,11,12,31,28.30
2014,08,11,12,32,28.30
2014,08,11,12,33,28.30
2014,08,11,12,34,28.30
2014,08,11,12,35,28.30
2014,08,11,12,36,28.40
2014,08,11,12,37,28.50
2014,08,11,12,38,28.60
2014,08,11,12,39,28.70
2014,08,11,12,40,28.80
2014,08,11,12,41,28.80
2014,08,11,12,42,28.80
2014,08,11,12,43,28.80
2014,08,11,12,44,28.70
2014,08,11,12,45,28.70
2014,08,11,12,46,28.70
2014,08,11,12,47,28.70
2014,08,11,12,48,28.90
2014,08,11,12,49,28.90
2014,08,11,12,50,28.90
2014,08,11,12,51,28.90
2014,08,11,12,52,29.00
2014,08,11,12,53,29.10
2014,08,11,12,54,29.20
2014,08,11,12,55,29.20
2014,08,11,12,56,29.30
2014,08,11,12,57,29.30
2014,08,11,12,58,29.40
2014,08,11,12,59,29.50
2014,08,11,13,00,29.50
2014,08,11,13,01,29.50
2014,08,11,13,02,29.40
2014,08,11,13,03,29.40
2014,08,11,13,04,29.40
2014,08,11,13,05,29.50
2014,08,11,13,06,29.50
2014,08,11,13,07,29.50
2014,08,11,13,08,29.50
2014,08,11,13,09,29.50
2014,08,11,13,10,29.60
2014,08,11,13,11,29.60
2014,08,11,13,12,29.50
2014,08,11,13,13,29.50
2014,08,11,13,14,29.50
2014,08,11,13,15,29.50
2014,08,11,13,16,29.60
2014,08,11,13,17,29.60
2014,08,11,13,18,29.80
2014,08,11,13,19,29.90
2014,08,11,13,20,30.00
2014,08,11,13,21,30.10
2014,08,11,13,22,30.20
2014,08,11,13,23,30.40
2014,08,11,13,24,30.60
2014,08,11,13,25,30.70
2014,08,11,13,26,30.80
2014,08,11,13,27,30.70
2014,08,11,13,28,30.70
2014,08,11,13,29,30.60
2014,08,11,13,30,30.50
2014,08,11,13,31,30.40
2014,08,11,13,32,30.30
2014,08,11,13,33,30.20
2014,08,11,13,34,30.10
2014,08,11,13,35,30.00
2014,08,11,13,36,29.90
2014,08,11,13,37,29.90
2014,08,11,13,38,29.90
2014,08,11,13,39,29.90
2014,08,11,13,40,29.80
2014,08,11,13,41,29.80
2014,08,11,13,42,29.80
2014,08,11,13,43,29.80
2014,08,11,13,44,29.80
2014,08,11,13,45,29.90
2014,08,11,13,46,29.90
2014,08,11,13,47,29.90
2014,08,11,13,48,30.00
2014,08,11,13,49,30.10
2014,08,11,13,50,30.20
2014,08,11,13,51,30.20
2014,08,11,13,52,30.30
2014,08,11,13,53,30.30
2014,08,11,13,54,30.20
2014,08,11,13,55,30.20
2014,08,11,13,56,30.10
2014,08,11,13,57,30.00
2014,08,11,13,58,29.80
2014,08,11,13,59,29.80
2014,08,11,14,00,29.80
2014,08,11,14,01,29.70
2014,08,11,14,02,29.60
2014,08,11,14,03,29.50
2014,08,11,14,04,29.20
2014,08,11,14,05,28.80
2014,08,11,14,06,28.60
2014,08,11,14,07,28.20
2014,08,11,14,08,27.60
2014,08,11,14,09,27.00
2014,08,11,14,10,26.30
2014,08,11,14,11,25.80
2014,08,11,14,12,25.50
2014,08,11,14,13,25.20
2014,08,11,14,14,24.90
2014,08,11,14,15,24.60
2014,08,11,14,16,24.50
2014,08,11,14,17,24.50
2014,08,11,14,18,24.40
2014,08,11,14,19,24.30
2014,08,11,14,20,24.30
2014,08,11,14,21,24.30
2014,08,11,14,22,24.40
2014,08,11,14,23,24.40
2014,08,11,14,24,24.50
2014,08,11,14,25,24.50
2014,08,11,14,26,24.50
2014,08,11,14,27,24.40
2014,08,11,14,28,24.30
2014,08,11,14,29,24.20
2014,08,11,14,30,24.20
2014,08,11,14,31,24.20
2014,08,11,14,32,24.20
2014,08,11,14,33,24.20
2014,08,11,14,34,24.30
2014,08,11,14,35,24.30
2014,08,11,14,36,24.40
2014,08,11,14,37,24.40
2014,08,11,14,38,24.50
2014,08,11,14,39,24.50
2014,08,11,14,40,24.60
2014,08,11,14,41,24.60
2014,08,11,14,42,24.60
2014,08,11,14,43,24.70
2014,08,11,14,44,24.70
2014,08,11,14,45,24.70
2014,08,11,14,46,24.70
2014,08,11,14,47,24.70
2014,08,11,14,48,24.70
2014,08,11,14,49,24.60
2014,08,11,14,50,24.50
2014,08,11,14,51,24.50
2014,08,11,14,52,24.50
2014,08,11,14,53,24.40
2014,08,11,14,54,24.40
2014,08,11,14,55,24.40
2014,08,11,14,56,24.40
2014,08,11,14,57,24.30
2014,08,11,14,58,24.20
2014,08,11,14,59,24.20
2014,08,11,15,00,24.20
2014,08,11,15,01,24.30
2014,08,11,15,02,24.30
2014,08,11,15,03,24.40
2014,08,11,15,04,24.50
2014,08,11,15,05,24.60
2014,08,11,15,06,24.70
2014,08,11,15,07,24.70
2014,08,11,15,08,24.70
2014,08,11,15,09,24.70
2014,08,11,15,10,24.70
2014,08,11,15,11,24.80
2014,08,11,15,12,24.80
2014,08,11,15,13,24.90
2014,08,11,15,14,24.90
2014,08,11,15,15,25.00
2014,08,11,15,16,25.10
2014,08,11,15,17,25.20
2014,08,11,15,18,25.30
2014,08,11,15,19,25.30
2014,08,11,15,20,25.30
2014,08,11,15,21,25.30
2014,08,11,15,22,25.40
2014,08,11,15,23,25.40
2014,08,11,15,24,25.50
2014,08,11,15,25,25.60
2014,08,11,15,26,25.60
2014,08,11,15,27,25.70
2014,08,11,15,28,25.80
2014,08,11,15,29,25.80
2014,08,11,15,30,25.90
2014,08,11,15,31,25.90
2014,08,11,15,32,25.90
2014,08,11,15,33,25.90
2014,08,11,15,34,25.90
2014,08,11,15,35,25.90
2014,08,11,15,36,25.90
2014,08,11,15,37,26.00
2014,08,11,15,38,26.00
2014,08,11,15,39,26.00
2014,08,11,15,40,26.00
2014,08,11,15,41,26.00
2014,08,11,15,42,26.00
2014,08,11,15,43,26.10
2014,08,11,15,44,26.10
2014,08,11,15,45,26.20
2014,08,11,15,46,26.20
2014,08,11,15,47,26.20
2014,08,11,15,48,26.20
2014,08,11,15,49,26.30
2014,08,11,15,50,26.30
2014,08,11,15,51,26.30
2014,08,11,15,52,26.40
2014,08,11,15,53,26.40
2014,08,11,15,54,26.50
2014,08,11,15,55,26.60
2014,08,11,15,56,26.60
2014,08,11,15,57,26.60
2014,08,11,15,58,26.60
2014,08,11,15,59,26.60
2014,08,11,16,00,26.60
2014,08,11,16,01,26.60
2014,08,11,16,02,26.40
2014,08,11,16,03,26.30
2014,08,11,16,04,26.20
2014,08,11,16,05,26.10
2014,08,11,16,06,26.10
2014,08,11,16,07,26.10
2014,08,11,16,08,26.10
2014,08,11,16,09,26.10
2014,08,11,16,10,26.10
2014,08,11,16,11,26.10
2014,08,11,16,12,26.10
2014,08,11,16,13,26.10
2014,08,11,16,14,26.10
2014,08,11,16,15,26.10
2014,08,11,16,16,26.10
2014,08,11,16,17,26.10
2014,08,11,16,18,26.00
2014,08,11,16,19,26.00
2014,08,11,16,20,26.00
2014,08,11,16,21,26.10
2014,08,11,16,22,26.10
2014,08,11,16,23,26.00
2014,08,11,16,24,26.00
2014,08,11,16,25,25.90
2014,08,11,16,26,25.90
2014,08,11,16,27,25.90
2014,08,11,16,28,25.90
2014,08,11,16,29,25.90
2014,08,11,16,30,25.90
2014,08,11,16,31,26.00
2014,08,11,16,32,26.00
2014,08,11,16,33,26.00
2014,08,11,16,34,26.10
2014,08,11,16,35,26.10
2014,08,11,16,36,26.20
2014,08,11,16,37,26.20
2014,08,11,16,38,26.30
2014,08,11,16,39,26.40
2014,08,11,16,40,26.50
2014,08,11,16,41,26.60
2014,08,11,16,42,26.60
2014,08,11,16,43,26.60
2014,08,11,16,44,26.60
2014,08,11,16,45,26.60
2014,08,11,16,46,26.60
2014,08,11,16,47,26.60
2014,08,11,16,48,26.60
2014,08,11,16,49,26.60
2014,08,11,16,50,26.60
2014,08,11,16,51,26.60
2014,08,11,16,52,26.60
2014,08,11,16,53,26.60
2014,08,11,16,54,26.60
2014,08,11,16,55,26.50
2014,08,11,16,56,26.40
2014,08,11,16,57,26.50
2014,08,11,16,58,26.40
2014,08,11,16,59,26.30
2014,08,11,17,00,26.30
2014,08,11,17,01,26.30
2014,08,11,17,02,26.30
2014,08,11,17,03,26.40
2014,08,11,17,04,26.40
2014,08,11,17,05,26.50
2014,08,11,17,06,26.60
2014,08,11,17,07,26.60
2014,08,11,17,08,26.60
2014,08,11,17,09,26.50
2014,08,11,17,10,26.40
2014,08,11,17,11,26.50
2014,08,11,17,12,26.60
2014,08,11,17,13,26.60
2014,08,11,17,14,26.70
2014,08,11,17,15,26.70
2014,08,11,17,16,26.80
2014,08,11,17,17,26.90
2014,08,11,17,18,27.00
2014,08,11,17,19,27.10